AAUSAT4
1 41460U 16025E 22181.44705153 .00015407 00000-0 58560-3 0 9996
2 41460 98.1769 353.8792 0125813 200.2669 159.3145 15.19727440339912
LO-87
1 41557U 16033B 22181.55675042 .00008797 00000-0 26130-3 0 9999
2 41557 97.3893 279.2783 0009863 338.0412 147.8201 15.34970664339393
NuSat2
1 41558U 16033C 22181.89252955 .00007726 00000-0 21640-3 0 9993
2 41558 97.4092 285.3898 0009091 324.6162 155.3563 15.36867745339715
Lapan A3
1 41603U 16040E 22181.86194253 .00000918 00000-0 44635-4 0 9991
2 41603 97.2052 218.3065 0014728 110.9517 354.7170 15.20704809334072
Pratham
1 41783U 16059A 22181.55571001 .00000198 00000-0 46761-4 0 9998
2 41783 97.9122 222.5857 0034557 131.0655 229.3542 14.63367365307541
TY-1
1 41844U 16066D 22181.56868373 .00008859 00000-0 30015-3 0 9992
2 41844 97.3883 193.5148 0010940 237.7774 237.3705 15.30744724313611
CAS-2T
1 41847U 16066G 22181.41919529 .00000524 00000-0 88135-4 0 9997
2 41847 98.5505 246.0771 0364090 170.9274 189.8737 14.38603694296214
EO-88
1 42017U 17008BX 22181.14738685 .00007496 00000-0 22317-3 0 9990
2 42017 97.2682 247.0790 0005292 179.4864 180.6386 15.34978838299026
CAS-4B
1 42759U 17034B 22181.93643256 .00002471 00000-0 15413-3 0 9995
2 42759 43.0172 258.3783 0009574 5.4536 163.7191 15.12002225278397
CAS-4A
1 42761U 17034D 22181.43076491 .00002404 00000-0 14997-3 0 9996
2 42761 43.0182 259.9425 0009491 5.1034 97.7178 15.12085660278327
NIUSat
1 42766U 17036B 22181.57165133 .00003594 00000-0 13997-3 0 9990
2 42766 97.2002 218.9250 0011536 281.1229 78.8713 15.26549887278809
Aalto 1
1 42775U 17036L 22181.55036394 .00002717 00000-0 10899-3 0 9998
2 42775 97.1959 218.8065 0010500 280.8073 79.1984 15.25776933278778
URSA MAIOR
1 42776U 17036M 22181.59204306 .00003213 00000-0 12622-3 0 9991
2 42776 97.1973 219.5876 0010119 279.1282 80.8812 15.26348541278817
Max Valier Sat
1 42778U 17036P 22181.55967755 .00003479 00000-0 13312-3 0 9994
2 42778 97.2034 222.2111 0008695 279.9879 80.0379 15.27185067278900
Pegasus
1 42784U 17036V 22181.66168633 .00004746 00000-0 17032-3 0 9992
2 42784 97.1973 223.1665 0008071 280.0604 79.9725 15.29124066279030
NUDATSat
1 42787U 17036Y 22181.60698623 .00014173 00000-0 43132-3 0 9991
2 42787 97.2024 227.3069 0006368 258.3063 101.7428 15.34095794279113
SUCHAI 1
1 42788U 17036Z 22181.38075373 .00005715 00000-0 19351-3 0 9996
2 42788 97.1981 224.5606 0007310 273.4967 86.5438 15.30942531279162
SKCUBE
1 42789U 17036AA 22181.57998268 .00005026 00000-0 17460-3 0 9999
2 42789 97.1979 224.2069 0007392 274.7586 85.2811 15.30170802279087
VZLUSAT 1
1 42790U 17036AB 22181.55046558 .00007941 00000-0 24414-3 0 9990
2 42790 97.2005 227.2170 0006349 260.7536 99.2989 15.33928381279253
VENTA 1
1 42791U 17036AC 22181.42131177 .00004346 00000-0 15417-3 0 9998
2 42791 97.1981 223.9309 0007158 277.0753 82.9673 15.29562032279042
Robusta 1B
1 42792U 17036AD 22181.59664077 .00005697 00000-0 19441-3 0 9998
2 42792 97.1979 224.7941 0006925 274.1474 85.8976 15.30695577279131
D-SAT
1 42794U 17036AF 22181.55330454 .00001659 00000-0 14355-3 0 9998
2 42794 97.4500 186.2712 0124132 42.0172 319.0488 14.92692009273433
TechnoSat
1 42829U 17042E 22181.83308601 .00000373 00000-0 42007-4 0 9992
2 42829 97.4196 35.1903 0013083 328.7733 31.2709 14.91891129270086
QIKCOM-1
1 42983U 98067NF 22181.28691048 .00166365 23507-4 25637-3 0 9992
2 42983 51.6262 112.8744 0002819 64.2078 295.9225 16.03879818266991
AO-91
1 43017U 17073E 22181.61076049 .00001378 00000-0 10738-3 0 9991
2 43017 97.6741 75.2669 0249304 144.4754 217.3350 14.81456786249069
PICSAT
1 43132U 18004X 22181.16826699 .00006306 00000-0 20846-3 0 9995
2 43132 97.3721 257.4775 0005952 320.6251 39.4557 15.31703509248350
AO-92
1 43137U 18004AC 22181.44169538 .00003998 00000-0 14195-3 0 9997
2 43137 97.3686 256.4823 0006225 324.9700 35.1131 15.29602780248333
TianYi 2
1 43155U 18008A 22181.58194831 .00005356 00000-0 28507-3 0 9992
2 43155 97.3522 239.5589 0018042 98.4753 40.2378 15.15508267245263
Zhou Enlai
1 43156U 18008B 22181.60270204 .00005490 00000-0 29413-3 0 9991
2 43156 97.3573 239.4583 0015195 99.2992 58.9526 15.15299128245199
TianYi 6
1 43158U 18008D 22181.45660794 .00004438 00000-0 24576-3 0 9999
2 43158 97.3524 237.2698 0014535 98.4053 26.0269 15.14229968245077
S-Net D
1 43186U 18014G 22181.52127752 .00000315 00000-0 31609-4 0 9993
2 43186 97.6572 87.0127 0009472 253.9461 106.0719 14.97947216240872
S-Net B
1 43187U 18014H 22181.72182447 .00000325 00000-0 32497-4 0 9995
2 43187 97.6568 87.1604 0009499 252.9967 107.0215 14.97945381240905
S-Net A
1 43188U 18014J 22181.52170944 .00000327 00000-0 32613-4 0 9995
2 43188 97.6573 87.0281 0009480 253.9340 106.0838 14.97944485240878
S-Net C
1 43189U 18014K 22181.72283606 .00000366 00000-0 35931-4 0 9997
2 43189 97.6566 87.1499 0009515 252.8914 107.1267 14.97942029239459
FMN 1
1 43192U 18015A 22181.49352514 .00019059 00000-0 49539-3 0 9998
2 43192 97.5354 326.9591 0009492 347.1069 57.0531 15.38941654245450
Shaonian Xing
1 43199U 18015H 22181.94204306 .00010446 00000-0 31291-3 0 9997
2 43199 97.5147 322.4975 0012289 359.5971 116.7273 15.34631374245515
SurfSat
1 43614U 18070B 22181.57290848 .00019985 00000-0 28570-3 0 9998
2 43614 93.0313 104.3261 0008436 346.6088 13.4951 15.56136123213105
CP-7 DAVE
1 43615U 18070C 22181.33494932 .00016838 00000-0 25276-3 0 9997
2 43615 93.0300 104.0676 0009188 351.2917 8.8185 15.54807816213038
ELFIN-B
1 43616U 18070D 22181.78275431 .00053208 00000-0 45147-3 0 9999
2 43616 93.0203 105.5388 0003993 351.9663 8.1543 15.69482983213446
ELFIN-A
1 43617U 18070E 22181.76535088 .00067091 00000-0 50880-3 0 9990
2 43617 93.0264 106.9141 0002353 355.1353 4.9896 15.72151596213494
CubeBel-1
1 43666U 18083E 22181.86665598 .00006331 00000-0 26822-3 0 9998
2 43666 97.4194 210.3994 0010965 287.3335 199.9379 15.23449903203520
Changshagaoxin
1 43669U 18083H 22181.85951684 .00006034 00000-0 26812-3 0 9993
2 43669 97.4138 206.3287 0007581 288.5607 189.0629 15.21871442203349
Ten-Koh
1 43677U 18084G 22181.36376931 .00000620 00000-0 68349-4 0 9992
2 43677 97.9661 311.5322 0014828 225.1520 134.8494 14.91124585199602
PO-101
1 43678U 18084H 22181.45858650 .00000539 00000-0 58730-4 0 9998
2 43678 97.9721 314.8772 0008618 238.3617 121.6782 14.92188703199795
IRVINE 01
1 43693U 18088D 22181.34640317 .00016549 00000-0 43144-3 0 9996
2 43693 85.0297 302.0987 0012378 69.3806 290.8771 15.38633070202206
QO-100
1 43700U 18090A 22181.59534297 .00000153 00000-0 00000-0 0 9999
2 43700 0.0189 352.9846 0001047 141.2579 24.5536 1.00275442 13163
Reaktor Hello World
1 43743U 18096AA 22181.44525552 .00005218 00000-0 15930-3 0 9998
2 43743 97.3531 261.2582 0014792 19.6185 340.5624 15.34246571199955
MinXSS-2
1 43758U 18099A 22181.47956926 .00001797 00000-0 15912-3 0 9991
2 43758 97.6247 249.0827 0013943 215.1596 144.8708 14.97429807195058
AO-95
1 43770U 18099N 22181.42851422 .00000569 00000-0 55033-4 0 9990
2 43770 97.6205 247.4420 0013011 228.2125 131.7985 14.96487755194951
RANGE-B
1 43772U 18099Q 22181.15017947 .00001467 00000-0 13188-3 0 9990
2 43772 97.6323 248.8745 0012647 212.5252 147.5192 14.97132781194930
RANGE-A
1 43773U 18099R 22181.42105241 .00000351 00000-0 36198-4 0 9994
2 43773 97.6129 246.2968 0012349 214.0919 145.9511 14.96069820194939
MOVE-II
1 43780U 18099Y 22181.44369915 .00001420 00000-0 12566-3 0 9994
2 43780 97.6231 248.6096 0012317 222.6864 137.3402 14.97799339195007
